Location: Unspecified
(0.0000°N, 0.0000°E)
Time: 12:25:09
(UTC+00:00)

SR - Pass Details

Date: 19 November 2019
Orbit: 573 x 882 km, 66.7° (Epoch: 10 December)

Event Time Altitude Azimuth Distance (km) Brightness Sun altitude
Rises 13:34:57 0° 215° (SW) 2,907 ? 56.8°
Reaches altitude 10° 13:37:16 10° 223° (SW) 2,039 ? 56.4°
Maximum altitude 13:41:32 37° 291° (WNW) 1,049 ? 55.5°
Drops below altitude 10° 13:46:09 10° 358° (N) 2,211 ? 54.6°
Sets 13:48:46 0° 6° (N) 3,187 ? 54.0°
